Skip Page Navigation
NASA JPL Caltech
NASA Logo - Jet Propulsion Laboratory + View the NASA Portal
+ Center for Near-Earth Object Studies
JPL Home Earth Solar System Stars & Galaxies Technology
JPL Solar System Dynamics
BODIES ORBITS EPHEMERIDES TOOLS PHYSICAL DATA DISCOVERY FAQ SITE MAP
JPL Small-Body Database Browser
Search: [ help ]  
243271 (2008 BV6)
Classification: Main-belt Asteroid          SPK-ID: 2243271
Ephemeris | Orbit Diagram | Orbital Elements | Mission Design | Physical Parameters | Discovery Circumstances | Close-Approach Data ]

[ show orbit diagram ]
Orbital Elements at Epoch 2459000.5 (2020-May-31.0) TDB
Reference: JPL 14 (heliocentric ecliptic J2000)
 Element Value Uncertainty (1-sigma)   Units 
e .08338507367183896 4.5328e-08  
a 2.995951514978157 3.7468e-08 au
q 2.746133877184446 1.4157e-07 au
i 1.795601982538059 5.8452e-06 deg
node 165.3643717862323 0.00016722 deg
peri 96.66423921934845 0.00017095 deg
M 17.92513566073474 3.572e-05 deg
tp 2458906.189391213578
(2020-Feb-26.68939121)
0.00018774 TDB
period 1894.089941951392
5.19
3.5532e-05
9.728e-08
d
yr
n .1900648918652242 3.5655e-09 deg/d
Q 3.245769152771868 4.0592e-08 au
  Orbit Determination Parameters
   # obs. used (total)      249  
   data-arc span      5870 days (16.07 yr)  
   first obs. used      2003-03-30  
   last obs. used      2019-04-25  
   planetary ephem.      DE431  
   SB-pert. ephem.      SB431-N16  
   condition code      0  
   norm. resid. RMS      .54138  
   source      ORB  
   producer      Otto Matic  
   solution date      2019-Jul-14 11:56:40  

Additional Information
 Earth MOID = 1.73133 au 
 Jupiter MOID = 1.79984 au 
 T_jup = 3.248 
[ show covariance matrix ]

Ephemeris | Orbit Diagram | Orbital Elements | Mission Design | Physical Parameters | Discovery Circumstances | Close-Approach Data ]

Physical Parameter Table
Parameter Symbol Value Units Sigma Reference Notes
absolute magnitude H 16.4   n/a MPO433594  
diameter diameter 3.588 km 0.485 urn:nasa:pds:neowise_diameters_albedos::2.0[mainbelt] (http://adsabs.harvard.edu/abs/2011ApJ...741...68M)  
rotation period rot_per 31.37 h n/a LCDB (Rev. 2019-August); Warner et al., 2009 Result based on less than full coverage, so that the period may be wrong by 30 percent or so.
Published Reference List:
[Chang, C.-H.; Lin, H.-W.; Ip, W.-H.; Chen, W.-P.; et al. (2019) ArXiv:1901.08719.]
geometric albedo albedo 0.038   0.020 urn:nasa:pds:neowise_diameters_albedos::2.0[mainbelt] (http://adsabs.harvard.edu/abs/2011ApJ...741...68M)  

243271 (2008 BV6)          Discovered 2008-Jan-16 by Spacewatch at Kitt Peak
Reference: 20100626/Numbers.arcLast Updated: 2010-06-28

[ hide close-approach data ]
Close-Approach Data   ...sorted by Date/Time (TDB)
Date/Time (TDB) Time Uncertainty
(days_HH:MM)
Body Nominal Distance (au) Minimum Distance (au) Maximum Distance (au) V-relative (km/s) V-infinity (km/s) JD (TDB) Time Uncertainty (minutes) Semi-major axis (km) Semi-minor axis (km) range-LOV angle (deg) N-sigma BP Orbit Ref. Reference Modified
1928-Aug-28 06:51 00:05 Jupiter 1.81684770993853 1.81684693665808 1.81684848322611 2.72257894266525 2.54558974850848 2425486.785347689 5.01935958281765 243.226237053843 11.3812708143093 -87.747897604307 2429449.73991475 T 14 CATAB v2.0e-lin.ifort 2019-Jul-14 11:56:42 2019-Jul-14 11:56
1965-Aug-08 05:31 00:03 Jupiter 1.85161070937066 1.85160984680122 1.85161157194021 2.58743451589715 2.40414515390693 2438980.729653459 2.87148310473734 71.0265722728997 19.9578630964841 72.0410275301335 2232186.88959048 T 14 CATAB v2.0e-lin.ifort 2019-Jul-14 11:56:42 2019-Jul-14 11:56
2011-Jun-19 05:54 < 00:01 Jupiter 1.84364446258672 1.8436439670697 1.84364495810363 2.8739509758489 2.70937954718441 2455731.745505800 0.304253481529815 47.3211796079637 13.9897790470091 -89.1809242226252 2492938.85292598 T 14 CATAB v2.0e-lin.ifort 2019-Jul-14 11:56:42 2019-Jul-14 11:56
2048-May-26 06:34 00:02 Jupiter 1.82140884546767 1.82140838715104 1.82140930378419 2.52626528054223 2.33493945448278 2469222.773568358 1.95956915881488 68.8918242887117 8.02450594964623 83.7157411698445 2604188.95677539 T 14 CATAB v2.0e-lin.ifort 2019-Jul-14 11:56:42 2019-Jul-14 11:56
2094-Apr-08 17:58 00:05 Jupiter 1.88567466094457 1.88567321257497 1.88567610932371 3.0812590038295 2.93185623065746 2485976.248903339 4.55513994383019 245.187874957988 16.3764433354729 -79.3823047531906 2451123.61716526 T 14 CATAB v2.0e-lin.ifort 2019-Jul-14 11:56:42 2019-Jul-14 11:56
2131-Mar-17 13:18 00:07 Jupiter 1.80781644165107 1.80781586047439 1.80781702283134 2.52558587788111 2.3327059567618 2499467.053991153 6.76579817500912 206.253557030285 8.27471001152791 82.5315131799317 2532228.29296638 T 14 CATAB v2.0e-lin.ifort 2019-Jul-14 11:56:42 2019-Jul-14 11:56
2168-Feb-20 21:03 00:09 Jupiter 1.96890396125662 1.96890094390197 1.9689069786106 2.8638135091641 2.70943311102046 2512956.376786205 8.74322609418181 147.02143685943 42.5461093037136 -43.5767972782027 1151456.82188578 T 14 CATAB v2.0e-lin.ifort 2019-Jul-14 11:56:42 2019-Jul-14 11:56
2177-Jan-28 14:32 00:09 Jupiter 1.93239338353542 1.93239023602266 1.93239653109134 3.31603461127108 3.18110501881889 2516221.105545762 9.21876696392857 498.704537379409 18.3057381767867 -76.6772149631898 2521800.1552745 T 14 CATAB v2.0e-lin.ifort 2019-Jul-14 11:56:42 2019-Jul-14 11:56

Alternate Designations
 2008 BV6 = 2005 QX125 
Ephemeris | Orbit Diagram | Orbital Elements | Mission Design | Physical Parameters | Discovery Circumstances | Close-Approach Data ]
ABOUT SSD CREDITS/AWARDS PRIVACY/COPYRIGHT GLOSSARY LINKS
FirstGov 2020-Aug-07 16:45 UT
(server date/time)  
NASA Home Page
Site Manager:   Ryan S. Park
Webmaster  Alan B. Chamberlin